Location: Fort Worth, Tx
(32.7431°N, 97.3695°W)
Time: 23:21:22
(UTC-04:00)

BEESAT 2 - Visible Passes

Search period start: 28 March 2023 00:00
Search period end: 07 April 2023 00:00
Orbit: 446 x 481 km, 64.9° (Epoch: 28 March)

Date Brightness Start Highest point End Pass type
(mag) Time Alt. Az. Time Alt. Az. Time Alt. Az.
28 Mar ? 07:33:39 10° SSE 07:36:20 20° ESE 07:39:03 10° ENE visible
29 Mar ? 07:02:29 10° SE 07:04:08 13° ESE 07:05:47 10° E visible
31 Mar ? 07:31:46 10° SSW 07:35:23 84° WNW 07:39:02 10° NNE visible
01 Apr ? 07:00:16 17° S 07:02:51 58° ESE 07:06:27 10° NE visible
02 Apr ? 06:29:20 29° SSE 06:30:17 34° ESE 06:33:38 10° NE visible
03 Apr ? 05:58:10 21° E 05:58:10 21° E 06:00:31 10° ENE visible
03 Apr ? 07:32:05 13° W 07:34:04 20° NW 07:36:48 10° N visible
04 Apr ? 05:26:49 10° E 05:26:49 10° E 05:26:55 10° ENE visible
04 Apr ? 07:00:43 28° WNW 07:01:11 29° WNW 07:04:26 10° N visible
05 Apr ? 06:29:10 38° NNW 06:29:10 38° NNW 06:31:49 10° NNE visible
06 Apr ? 05:57:26 24° NNE 05:57:26 24° NNE 05:58:59 10° NNE visible
